Temp_Advection
nan nan nan nan nan nan nan nan nan nan nan nan nan nan nan nan nan nan nan nan nan nan nan nan nan nan nan nan nan nan nan nan nan nan nan nan nan nan nan nan nan nan nan nan nan nan nan nan nan
nan -0 -1 -1 -1 -0 0 0 0 -0 -0 -0 0 0 0 -1 -1 -1 -0 -0 -0 -0 1 -0 -0 -0 -0 -0 -0 -0 -0 -0 -0 -0 -0 0 0 -0 -0 -0 0 0 -0 -0 0 0 0 0 nan
nan -1 -2 -0 -0 -0 0 0 -0 -0 -0 -0 -0 0 -0 -1 -0 -0 -0 -0 -0 -0 0 0 0 0 0 0 0 -0 -0 -0 -0 -0 -0 -0 -0 -0 -0 -0 -0 -0 -0 -0 -0 0 0 -0 nan
nan -1 -1 -0 0 -0 0 -0 -0 -0 -0 -0 0 -1 -1 -0 -0 -0 -0 -0 -0 -0 0 0 0 0 0 0 0 0 0 0 0 0 0 0 0 0 0 0 -0 0 0 0 0 0 0 0 nan
nan -1 -1 0 -0 0 -0 -0 0 -0 -0 0 0 -0 -1 -0 -0 -0 0 0 0 0 0 0 0 0 0 0 0 0 0 0 0 0 0 0 0 0 0 0 0 0 0 0 0 0 0 0 nan
nan -1 -0 -0 -0 0 -0 -0 -0 0 -0 0 0 -0 -1 -0 -0 -0 -0 0 0 1 0 0 0 0 0 0 0 0 0 0 0 0 0 0 0 0 0 0 0 0 0 0 0 0 0 0 nan
nan -0 -0 -0 -0 -0 -0 -0 0 -0 0 0 -0 0 -1 -0 -0 -0 -0 0 0 0 0 1 1 0 0 0 0 0 0 0 0 0 0 0 0 0 0 0 0 0 0 0 0 0 0 0 nan
nan -1 -0 0 0 -0 -0 0 0 -0 0 -0 -0 -0 -0 -0 -0 -0 -0 -0 -0 -0 -0 1 0 0 1 1 0 0 0 0 0 0 0 0 0 0 0 0 0 0 0 0 0 0 0 0 nan
nan -0 -0 0 0 -0 -0 -0 -0 -0 0 -0 0 -1 -1 -0 -0 -0 -1 -1 -1 -0 -0 -0 -0 0 0 0 0 0 0 0 0 0 0 0 0 0 -0 0 0 0 0 0 0 0 0 -0 nan
nan -0 -0 -0 -0 -0 0 0 -0 -0 -0 -0 -0 -0 0 -0 -0 -0 -1 -1 -1 -0 0 1 0 0 0 0 0 0 0 0 0 0 0 0 0 0 0 0 -0 -0 0 -0 0 0 0 0 nan
nan -0 -0 0 0 -0 -0 -0 -0 -0 -0 0 0 -0 0 -0 -0 -0 -0 -0 -0 0 0 0 0 -0 -0 -0 -0 0 0 0 0 0 0 0 -0 0 0 -0 -0 -0 0 0 0 -0 0 1 nan
nan -0 -0 0 0 -0 -0 -0 -0 -0 0 -0 0 0 0 -0 -0 -0 0 0 0 0 0 0 -0 -0 0 0 -0 0 -0 0 0 -0 -0 0 0 -0 -0 -0 0 0 0 0 0 0 0 -0 nan
nan -0 0 0 0 -0 -0 -0 -0 0 0 0 0 0 -0 0 0 0 1 1 0 0 0 0 0 0 0 -0 -0 0 1 1 0 -0 0 0 0 1 0 1 1 0 0 0 -0 -0 -0 -0 nan
nan -0 -0 -0 -0 -0 0 -0 -0 0 0 0 0 0 0 0 1 0 0 1 0 0 0 0 0 0 0 0 1 1 1 1 0 0 0 0 0 0 0 0 0 0 0 -0 -0 -0 -0 0 nan
nan -1 -1 -0 0 0 0 -0 -0 -0 0 -0 0 0 0 0 0 1 0 0 0 -0 -0 0 0 0 0 0 0 0 0 0 0 -0 -0 0 0 -0 0 0 0 -0 -0 0 0 0 -0 -0 nan
nan -0 -0 0 0 -0 -0 0 -0 -0 -0 -0 -0 0 0 0 0 0 0 0 0 0 -0 -0 -0 -0 0 0 0 0 0 0 -0 -0 -0 -0 -0 -0 0 -0 -0 0 0 0 0 0 0 -0 nan
nan 0 -0 0 -0 -0 -0 -0 -0 -0 -0 0 -0 -0 0 -0 0 0 0 0 0 0 -0 -0 -0 -0 0 0 0 -0 -0 -0 -0 -0 -0 -0 -0 -0 -0 -0 -0 -1 -0 0 0 1 0 -0 nan
nan -0 -0 -0 -0 0 -0 -0 -0 0 0 0 -0 -1 -0 -0 0 0 0 0 0 -0 0 0 0 0 0 0 0 0 0 -0 -0 -0 -0 -0 -1 -1 -1 -1 -1 -1 -1 -1 -0 -1 -0 0 nan
nan -0 -1 -1 0 0 -0 -0 0 -0 0 0 0 -0 -0 -0 0 0 0 0 0 -0 -0 0 0 0 0 0 0 0 0 0 -0 -0 -1 -0 -1 -1 -1 -0 -0 -0 -0 -0 -0 -0 -1 -1 nan
nan -0 -1 -1 -0 0 -0 -0 -0 -0 -0 0 0 -0 -0 -0 -0 -0 0 0 -0 0 0 0 0 0 0 -0 -0 0 0 -0 -0 -0 -1 -1 -1 -1 -1 -1 -0 -0 -0 0 1 0 0 -0 nan
nan 0 -0 -1 -1 0 0 -0 0 -0 -0 -0 0 -0 -0 -0 -0 -0 0 0 0 0 0 0 0 1 0 0 0 -0 -0 0 -0 0 0 -1 -1 -1 -1 -1 -1 -0 -0 -1 -1 -0 -0 -0 nan
nan -0 0 0 -0 -1 -0 0 0 0 -0 -0 -0 -0 -0 -0 -0 0 0 0 0 0 0 0 0 0 -0 0 0 0 0 -0 -1 0 1 1 -0 -0 -1 -0 -0 -0 1 0 -0 -1 -0 -0 nan
nan -0 0 -0 -0 -0 -0 -0 0 0 1 -0 -0 -0 -0 -0 -0 0 0 0 0 0 0 0 0 -0 -0 0 0 0 -0 -0 -1 -1 -0 1 1 0 -0 -1 0 -0 0 0 1 0 -0 -0 nan
nan 0 -0 0 0 -0 -1 -0 1 -0 -0 0 0 -0 -0 -0 -0 -0 0 0 0 0 1 1 0 -0 0 0 0 0 -0 -0 -1 -1 -1 -1 -0 -1 -0 -0 -1 -0 -0 -0 -0 0 1 0 nan
nan 0 0 -0 0 -0 -0 -0 -0 -1 -0 0 0 -0 -0 -0 -0 0 0 0 0 1 1 1 0 0 0 -0 0 -0 -0 -0 -0 -0 -0 -0 -0 -0 -1 -0 -1 -1 -0 -0 -1 -0 -0 0 nan
nan 0 1 0 -1 -0 0 -0 0 -0 -0 0 -0 -0 -0 -0 0 0 0 0 0 1 1 1 0 0 0 0 0 -0 -0 -0 -0 -0 -0 0 0 0 0 1 1 0 -0 -0 -0 -0 -0 -0 nan
nan -0 -0 0 -0 -0 -1 0 -1 -0 0 -0 -0 -0 -0 -0 -0 -0 -0 -0 0 0 1 1 0 0 0 0 0 -0 -0 -0 0 -1 -0 -0 0 0 0 1 1 0 0 0 -0 0 0 0 nan
nan -0 -0 0 0 -1 -1 -0 -0 -1 -1 -0 -0 -0 -0 -1 -1 -1 -1 -1 -0 0 0 1 1 0 1 1 0 -0 -0 0 1 0 -1 -0 -0 -0 -0 0 1 0 0 0 0 0 -0 -0 nan
nan 0 -0 -0 0 0 -1 -1 -0 -1 0 0 0 -0 -0 -1 -1 -1 -1 -1 -1 -0 0 0 1 0 1 1 -0 -0 -0 -0 0 -0 0 0 -1 -0 0 -0 0 -0 -0 0 1 0 0 -0 nan
nan nan nan nan nan nan nan nan nan nan nan nan nan nan nan nan nan nan nan nan nan nan nan nan nan nan nan nan nan nan nan nan nan nan nan nan nan nan nan nan nan nan nan nan nan nan nan nan nan
Wind_Speed
3 2 4 6 7 9 6 5 8 9 8 6 7 9 13 18 17 6 10 9 13 14 15 15 14 14 13 14 14 12 10 9 9 9 8 8 8 8 9 8 7 6 6 5 4 2 2 2 3
4 4 5 10 10 11 8 9 6 9 8 4 6 5 3 15 14 14 8 10 14 14 15 14 13 12 11 13 12 12 12 11 11 10 8 8 8 8 8 8 7 7 6 4 3 2 2 2 2
1 6 14 6 13 10 10 2 9 8 5 8 7 5 3 11 7 6 9 14 15 15 15 15 14 12 12 13 14 13 13 12 12 11 10 10 10 10 9 9 9 7 6 4 3 1 1 2 2
4 7 9 9 4 7 11 6 6 4 6 5 7 13 8 5 3 6 11 13 15 15 14 16 15 13 12 12 12 12 12 11 11 10 9 8 8 8 8 7 6 6 5 5 4 3 2 1 2
7 11 11 10 3 3 4 3 3 2 8 9 7 10 13 7 9 10 11 11 15 15 17 18 16 14 12 11 10 9 9 9 9 9 8 8 7 7 7 7 7 7 6 5 5 4 4 3 3
12 10 11 8 8 5 6 1 5 4 4 4 9 8 10 8 9 9 11 13 14 14 12 19 17 16 15 13 12 11 10 9 9 9 9 8 9 9 9 9 9 9 8 8 8 7 6 6 5
14 9 15 4 8 6 4 2 1 2 6 11 5 7 11 10 9 12 13 15 16 14 12 17 18 18 16 14 13 12 12 12 12 11 11 11 11 12 12 12 12 12 12 12 11 11 10 9 8
10 7 6 5 7 5 4 2 3 9 7 2 4 5 15 14 11 12 13 14 14 13 13 13 14 17 17 17 18 17 16 15 14 14 14 14 14 15 15 15 15 15 15 15 15 15 14 13 12
5 7 7 3 3 7 3 5 3 2 4 7 3 6 9 13 14 13 13 13 14 14 13 13 12 11 12 12 19 19 18 17 15 16 17 16 15 14 17 16 18 18 19 19 19 18 18 18 17
11 7 7 8 8 3 4 6 4 7 9 8 6 2 5 12 14 14 13 13 13 14 15 16 17 21 21 11 16 18 17 12 12 15 18 18 12 15 14 17 16 20 20 20 22 22 22 22 20
2 10 7 2 3 5 7 8 4 8 8 9 9 9 8 13 14 13 13 12 10 10 7 9 14 18 19 18 17 18 21 21 20 20 20 15 15 15 14 16 14 16 16 17 18 21 24 24 18
10 3 6 6 4 9 10 12 10 12 13 3 5 6 8 11 14 14 12 11 10 7 5 7 9 14 15 16 19 20 22 22 24 22 20 19 19 20 18 17 14 14 12 15 15 18 17 19 21
9 7 5 7 9 12 13 14 16 17 14 14 12 9 10 11 12 10 7 7 8 8 11 12 14 17 16 17 18 20 20 19 18 20 20 21 21 20 20 19 12 15 15 7 11 16 19 21 22
4 9 13 13 13 12 13 13 15 15 9 10 12 12 10 9 7 5 5 6 7 5 5 7 7 11 12 13 14 14 14 14 12 12 14 14 15 16 16 15 15 13 15 13 14 13 17 15 18
10 11 13 14 3 2 6 13 8 1 3 5 7 7 4 3 6 6 7 7 7 5 5 5 5 3 3 5 3 3 3 2 3 4 6 8 8 8 9 9 11 12 14 16 15 16 16 16 16
15 13 13 10 6 4 6 5 7 3 1 3 2 4 6 4 7 7 7 9 8 8 8 7 4 4 5 3 4 4 2 1 1 2 3 5 8 10 10 13 15 18 19 21 21 20 19 18 17
14 11 5 3 6 3 9 9 12 3 5 2 7 7 7 7 7 6 6 7 8 8 8 7 5 3 4 4 4 4 3 1 1 3 6 8 9 11 13 14 15 18 19 20 20 19 19 17 18
12 5 7 8 9 12 11 12 5 6 3 3 5 8 8 8 7 7 8 8 5 7 5 4 5 7 6 6 5 3 2 2 5 8 10 11 13 14 14 14 17 18 16 16 17 21 21 20 20
10 11 12 13 11 6 13 10 10 7 3 7 7 7 7 7 8 7 8 9 9 7 8 8 8 7 6 4 7 6 4 1 4 8 12 15 18 17 18 17 17 18 16 17 17 16 15 14 13
12 14 14 11 3 3 14 10 11 7 6 4 6 7 9 10 8 9 8 9 10 10 10 9 9 9 9 10 8 5 2 3 8 11 13 16 18 19 19 18 18 18 19 18 15 13 14 12 9
12 12 14 12 11 12 17 16 21 8 8 9 7 7 8 8 6 6 8 10 10 11 12 10 11 11 10 8 6 3 5 3 4 13 15 20 23 21 20 18 18 18 16 16 16 17 15 13 11
15 13 10 14 14 12 5 11 6 16 10 8 8 8 9 7 4 4 8 10 11 11 11 11 11 12 13 11 8 4 9 10 16 22 28 29 22 25 23 22 18 20 17 14 15 15 13 11 13
12 4 10 12 13 15 17 11 14 14 11 9 9 8 7 7 3 2 6 10 11 12 13 13 13 14 14 10 12 9 8 12 17 24 28 23 20 19 20 22 21 19 17 17 15 11 12 12 11
10 9 14 13 12 13 18 15 15 8 4 4 9 8 7 5 3 4 4 8 11 12 15 15 16 16 16 12 10 5 7 13 18 22 17 18 19 20 20 20 21 20 18 17 17 17 15 13 13
13 12 9 11 9 11 10 7 7 13 16 14 10 9 7 5 7 8 6 8 10 14 17 16 16 14 13 12 6 4 10 15 15 14 13 16 18 18 19 21 21 21 20 21 21 20 20 20 19
3 8 8 11 11 14 6 6 3 14 16 14 10 8 4 8 11 12 10 9 10 13 18 18 16 16 12 10 5 5 14 18 20 12 16 20 21 23 23 22 20 21 21 21 21 21 19 18 19
1 5 7 8 13 11 13 12 15 9 7 8 7 4 9 12 15 15 13 13 12 12 16 18 16 16 14 11 6 6 16 21 17 25 23 24 24 26 27 25 23 20 21 22 24 24 24 23 25
7 6 7 2 5 7 8 9 3 10 13 4 6 8 13 17 17 15 15 15 13 11 11 14 14 15 15 12 9 10 17 21 36 20 25 26 27 27 26 25 23 22 24 28 26 27 27 27 26
8 2 3 5 3 4 5 6 2 9 4 3 6 8 11 13 13 13 14 14 10 8 5 8 10 10 11 11 13 23 22 35 35 31 25 24 25 25 23 23 23 23 23 24 28 30 30 31 31
5 5 2 2 3 3 2 7 3 6 2 4 4 8 10 10 9 11 12 12 12 9 3 0 5 7 13 14 18 22 32 32 20 19 19 21 24 24 25 25 25 25 25 24 25 27 28 33 34
Wind_Direction
164 328 293 247 237 242 89 138 72 125 151 49 28 10 28 34 23 105 131 115 139 151 160 158 156 151 152 160 162 167 164 165 157 151 145 137 138 139 142 144 141 137 141 143 141 141 134 119 112
166 269 254 265 253 218 102 119 175 66 69 105 106 178 147 74 78 107 117 128 145 151 162 169 162 157 147 150 157 165 169 164 161 160 156 148 144 145 149 152 156 157 159 156 154 137 126 117 118
145 252 260 241 252 4 117 179 73 90 143 161 177 349 33 89 54 97 130 138 150 155 157 176 173 167 154 149 150 158 161 165 166 164 163 160 158 156 160 165 168 163 162 164 163 156 142 149 142
267 218 240 242 202 60 24 60 33 172 147 214 263 101 103 61 102 132 142 144 156 155 169 174 180 179 170 165 164 168 169 170 174 175 174 172 170 169 170 172 173 175 180 185 185 185 186 208 194
261 262 251 236 61 91 99 65 175 232 146 172 260 111 87 104 112 123 138 146 160 157 194 181 183 189 187 184 183 186 187 189 191 193 194 193 195 194 194 194 199 203 206 212 214 211 205 213 224
255 267 252 189 128 172 95 107 172 211 142 156 224 114 101 138 126 128 131 144 156 164 192 182 189 196 199 201 205 209 214 217 220 221 223 223 226 228 227 226 226 229 232 234 237 235 229 227 229
269 250 270 67 134 148 39 279 220 259 192 195 3 225 118 145 143 137 141 145 154 162 165 185 195 201 206 211 215 220 226 228 231 235 239 240 242 244 244 243 244 244 245 246 248 248 248 245 245
278 276 286 221 161 155 72 235 202 240 143 59 237 301 163 155 149 145 144 147 153 160 172 183 197 208 214 218 218 220 222 227 231 237 243 246 251 253 254 255 256 257 255 256 256 257 257 253 249
252 261 221 184 259 104 94 300 84 287 202 208 174 19 89 151 153 157 160 159 162 168 176 183 194 207 211 225 229 228 230 233 241 247 250 251 254 271 269 262 257 254 255 256 256 257 259 260 258
255 267 34 12 37 17 282 248 308 256 185 198 181 133 157 168 174 178 181 180 180 176 175 184 181 201 207 205 245 228 233 230 226 232 241 245 240 241 239 247 264 266 264 265 266 263 261 261 261
224 274 54 177 283 297 269 268 210 259 256 230 203 173 199 196 198 201 203 197 189 193 198 185 199 206 209 209 226 216 216 217 221 223 236 240 231 241 245 244 258 262 266 271 269 271 264 262 254
281 252 272 268 237 259 265 292 288 271 270 327 269 278 224 219 216 216 213 181 169 189 183 198 216 222 229 235 238 233 229 229 231 236 236 239 237 238 242 243 245 255 263 267 264 260 257 264 261
251 281 278 270 251 252 267 261 267 268 267 261 245 259 253 232 232 223 212 188 175 180 179 201 214 228 229 235 246 248 241 237 239 249 247 243 244 245 239 240 221 221 235 263 283 275 265 262 263
350 277 275 266 263 259 257 257 257 259 254 263 259 255 249 240 226 143 144 171 173 170 169 177 227 229 239 241 242 238 243 232 236 244 252 248 253 254 259 257 253 257 257 251 263 264 266 271 278
277 268 272 244 253 181 232 237 208 356 279 270 252 255 238 176 156 170 169 169 169 161 139 143 153 183 210 203 209 218 229 233 248 273 289 289 279 277 276 280 281 281 289 292 290 286 286 285 283
254 257 273 135 202 146 242 154 149 129 98 58 127 156 166 155 151 150 153 158 151 158 137 136 153 177 183 203 211 205 198 262 322 325 319 318 311 304 304 301 294 293 297 295 292 288 286 283 282
223 272 271 236 209 165 229 303 144 168 297 209 158 164 169 157 152 156 158 160 166 185 184 185 192 209 213 196 192 181 175 187 311 323 325 326 328 321 315 311 307 308 304 299 294 289 284 283 283
342 311 298 275 147 219 264 260 256 205 233 265 179 159 170 178 179 170 164 167 178 183 210 200 203 196 201 185 171 176 179 324 352 351 352 351 344 340 336 326 318 316 310 302 290 287 286 282 283
302 294 282 282 287 269 267 265 264 102 223 174 176 170 171 177 183 191 202 211 205 222 212 221 214 188 171 161 162 167 156 187 336 332 335 344 344 344 340 338 334 326 321 310 310 304 301 298 288
275 273 273 282 323 284 273 260 270 146 157 136 152 158 166 169 183 195 212 223 228 229 218 220 211 206 198 202 202 208 258 12 21 358 350 341 343 342 338 335 334 330 323 313 302 295 291 293 301
266 266 279 286 299 260 255 256 247 117 160 130 122 134 152 165 183 206 216 219 219 222 223 210 209 203 192 187 162 125 61 101 302 327 326 331 326 329 330 331 334 337 335 323 325 320 313 304 295
272 262 249 266 271 274 19 289 163 180 165 149 131 129 131 134 148 212 232 231 225 225 218 205 198 206 196 182 166 205 271 285 306 304 312 315 326 327 328 326 330 333 326 321 323 320 315 304 297
277 328 262 277 278 279 268 251 251 159 176 136 124 127 121 103 67 299 251 243 230 226 220 208 212 207 214 228 284 289 310 320 321 323 308 311 321 318 309 313 311 313 313 310 312 306 302 297 293
283 263 258 244 255 258 263 256 271 172 44 167 141 128 110 89 20 338 284 252 239 229 222 219 215 221 227 260 265 294 345 339 337 331 321 320 320 317 315 315 312 309 305 301 296 291 290 285 276
243 262 277 276 244 253 21 290 293 139 182 163 159 117 93 43 1 345 319 276 254 237 227 224 227 223 232 248 244 317 336 346 336 332 323 319 319 317 313 312 307 304 298 296 294 289 283 282 281
235 277 263 279 297 306 166 265 85 117 135 136 114 102 73 24 7 360 339 309 279 255 236 231 234 232 233 223 208 292 336 338 338 314 298 308 311 316 315 307 299 296 297 295 296 291 287 283 277
335 251 359 305 279 269 268 283 4 69 122 126 118 132 25 1 4 1 350 338 310 275 253 234 237 237 233 223 239 294 332 340 321 308 285 302 310 310 312 307 298 290 280 273 274 275 279 275 277
298 2 308 239 305 300 318 325 8 54 319 231 129 20 358 356 0 359 354 344 326 300 269 234 237 240 239 229 263 300 316 320 319 290 287 299 303 307 310 307 300 290 291 296 290 283 282 283 282
241 166 357 321 329 297 303 302 117 184 277 250 304 348 354 360 11 5 2 355 347 330 292 247 240 237 241 247 285 303 304 304 306 293 285 292 296 300 300 299 295 290 286 281 285 286 283 281 280
312 313 281 294 288 265 318 273 64 62 59 302 343 358 19 30 23 21 20 25 28 29 34 250 240 244 249 277 294 292 295 307 302 291 286 291 293 292 291 291 288 287 284 280 277 279 279 277 277
Height
1519 1519 1521 1520 1513 1493 1490 1494 1485 1493 1496 1501 1500 1501 1500 1503 1505 1533 1526 1526 1530 1531 1531 1534 1536 1538 1539 1541 1542 1545 1546 1548 1549 1550 1551 1551 1552 1553 1554 1555 1555 1556 1557 1558 1558 1558 1559 1558 1558
1520 1522 1520 1510 1505 1491 1493 1491 1491 1493 1501 1506 1507 1505 1502 1510 1514 1520 1524 1528 1531 1533 1533 1535 1537 1539 1541 1542 1543 1546 1548 1549 1550 1551 1552 1553 1553 1554 1555 1556 1557 1557 1558 1558 1558 1558 1558 1558 1558
1519 1521 1515 1500 1488 1493 1491 1493 1494 1503 1507 1506 1505 1506 1507 1515 1520 1522 1524 1527 1531 1533 1536 1536 1539 1541 1542 1543 1544 1546 1548 1550 1551 1552 1553 1554 1554 1555 1555 1556 1557 1557 1557 1558 1558 1558 1559 1558 1558
1523 1519 1513 1501 1492 1499 1495 1497 1503 1503 1507 1506 1502 1505 1518 1522 1522 1524 1527 1528 1531 1534 1537 1537 1541 1543 1544 1546 1547 1548 1549 1550 1552 1553 1553 1553 1553 1554 1555 1555 1556 1556 1557 1557 1557 1557 1558 1558 1558
1523 1512 1498 1493 1499 1501 1500 1506 1508 1502 1503 1505 1504 1502 1515 1523 1523 1525 1527 1531 1533 1536 1533 1536 1540 1543 1546 1548 1549 1550 1551 1552 1553 1553 1554 1554 1555 1555 1555 1555 1555 1556 1556 1556 1556 1556 1557 1557 1557
1518 1509 1499 1497 1501 1504 1504 1506 1507 1506 1505 1507 1505 1505 1517 1524 1525 1526 1528 1531 1535 1537 1534 1536 1539 1542 1544 1546 1548 1550 1552 1553 1553 1554 1555 1555 1555 1556 1556 1555 1555 1555 1556 1556 1555 1555 1555 1556 1556
1515 1503 1494 1487 1500 1505 1507 1508 1506 1505 1503 1505 1506 1506 1517 1523 1525 1526 1528 1529 1532 1535 1537 1537 1539 1540 1542 1545 1547 1549 1551 1552 1553 1554 1554 1554 1555 1555 1555 1556 1556 1556 1555 1555 1555 1554 1554 1554 1555
1518 1508 1498 1494 1501 1503 1511 1510 1511 1508 1505 1512 1512 1502 1511 1520 1525 1527 1528 1530 1531 1533 1535 1537 1538 1540 1542 1543 1544 1545 1546 1549 1550 1552 1552 1553 1553 1554 1554 1554 1555 1555 1555 1555 1555 1554 1554 1553 1553
1518 1507 1498 1498 1504 1504 1513 1509 1511 1512 1510 1512 1514 1513 1516 1520 1523 1527 1528 1529 1530 1532 1534 1537 1541 1542 1542 1543 1542 1544 1545 1546 1548 1549 1550 1550 1552 1552 1552 1552 1552 1552 1552 1553 1552 1552 1552 1552 1551
1514 1504 1498 1504 1507 1510 1515 1515 1514 1511 1509 1513 1515 1517 1519 1521 1523 1525 1528 1530 1531 1532 1533 1535 1538 1538 1539 1542 1541 1543 1544 1545 1545 1545 1544 1546 1549 1549 1550 1548 1548 1549 1549 1550 1550 1550 1550 1548 1548
1513 1507 1507 1511 1515 1517 1514 1513 1512 1510 1508 1507 1510 1514 1519 1520 1522 1524 1526 1529 1534 1536 1537 1536 1535 1536 1539 1540 1540 1540 1540 1541 1542 1543 1543 1545 1546 1546 1547 1547 1546 1545 1545 1546 1546 1546 1545 1545 1545
1518 1514 1514 1511 1516 1517 1514 1512 1512 1511 1510 1512 1515 1518 1518 1520 1521 1522 1524 1525 1532 1535 1535 1535 1534 1534 1535 1537 1538 1539 1538 1537 1538 1538 1539 1541 1542 1541 1541 1543 1543 1543 1542 1543 1543 1543 1542 1541 1540
1519 1514 1516 1516 1515 1516 1514 1513 1512 1510 1511 1513 1515 1518 1517 1518 1520 1522 1523 1528 1533 1533 1532 1531 1531 1532 1532 1533 1535 1537 1536 1535 1535 1536 1537 1537 1537 1538 1538 1538 1539 1538 1538 1541 1541 1541 1539 1538 1536
1515 1517 1515 1513 1511 1509 1510 1510 1509 1509 1508 1509 1510 1515 1517 1519 1520 1522 1526 1530 1533 1532 1531 1530 1530 1530 1530 1531 1532 1534 1532 1533 1532 1534 1535 1535 1535 1534 1535 1534 1535 1535 1535 1535 1536 1536 1536 1534 1532
1518 1515 1508 1505 1506 1506 1509 1505 1506 1508 1509 1510 1510 1513 1516 1519 1522 1526 1528 1530 1532 1533 1531 1531 1530 1529 1530 1531 1532 1531 1534 1532 1532 1534 1535 1534 1534 1534 1533 1533 1533 1533 1532 1533 1533 1532 1532 1530 1529
1514 1507 1507 1502 1506 1509 1508 1498 1500 1506 1507 1509 1512 1514 1517 1520 1523 1525 1527 1528 1530 1530 1530 1529 1530 1531 1531 1532 1533 1534 1534 1534 1534 1533 1533 1533 1533 1533 1533 1533 1532 1531 1530 1529 1529 1528 1527 1525 1524
1499 1508 1498 1498 1503 1502 1503 1496 1493 1503 1505 1504 1510 1515 1518 1521 1522 1523 1526 1527 1527 1527 1525 1524 1527 1530 1533 1532 1533 1532 1533 1534 1534 1533 1533 1533 1532 1532 1531 1530 1528 1526 1525 1524 1523 1522 1521 1520 1519
1508 1505 1501 1503 1497 1501 1499 1496 1491 1496 1504 1504 1504 1511 1516 1519 1522 1522 1524 1526 1528 1525 1527 1526 1525 1525 1530 1531 1531 1531 1532 1533 1534 1533 1532 1532 1532 1530 1528 1528 1525 1523 1522 1520 1518 1516 1514 1513 1513
1513 1512 1510 1502 1496 1503 1499 1494 1490 1492 1501 1503 1504 1509 1514 1518 1520 1520 1521 1523 1525 1525 1526 1527 1527 1529 1530 1532 1528 1528 1529 1529 1532 1532 1530 1529 1530 1528 1526 1525 1522 1520 1518 1516 1513 1512 1510 1510 1510
1514 1513 1508 1497 1495 1505 1497 1493 1487 1490 1497 1500 1502 1508 1511 1516 1519 1520 1520 1522 1524 1524 1526 1527 1529 1529 1529 1531 1531 1530 1529 1529 1530 1532 1529 1529 1530 1528 1527 1524 1521 1518 1516 1514 1511 1509 1506 1506 1507
1511 1513 1510 1506 1499 1495 1496 1494 1483 1493 1500 1502 1505 1507 1511 1515 1519 1522 1522 1522 1523 1524 1525 1527 1527 1528 1529 1529 1530 1530 1531 1530 1527 1529 1529 1529 1527 1525 1524 1521 1518 1515 1514 1511 1507 1505 1503 1501 1502
1512 1499 1504 1505 1504 1504 1486 1501 1483 1498 1495 1500 1507 1510 1512 1514 1519 1521 1522 1523 1523 1525 1526 1527 1527 1527 1528 1528 1529 1530 1531 1530 1524 1525 1525 1524 1523 1518 1517 1516 1514 1510 1511 1509 1506 1504 1503 1501 1500
1507 1502 1503 1502 1501 1498 1491 1492 1477 1481 1489 1500 1503 1511 1514 1515 1519 1521 1522 1523 1522 1523 1524 1526 1525 1525 1526 1527 1527 1526 1526 1526 1524 1526 1525 1522 1521 1517 1516 1514 1511 1509 1508 1506 1505 1504 1503 1502 1501
1504 1507 1501 1497 1497 1506 1488 1487 1480 1485 1502 1506 1506 1510 1514 1516 1519 1519 1519 1521 1521 1522 1523 1523 1523 1523 1524 1524 1524 1524 1525 1525 1524 1522 1520 1519 1517 1515 1513 1510 1508 1506 1504 1503 1501 1500 1499 1499 1497
1506 1508 1513 1509 1502 1505 1484 1490 1481 1480 1490 1500 1507 1509 1514 1517 1518 1518 1518 1519 1519 1521 1521 1522 1523 1525 1522 1522 1522 1522 1523 1522 1521 1519 1520 1519 1516 1513 1510 1507 1505 1503 1501 1499 1497 1496 1495 1494 1492
1499 1502 1511 1524 1511 1500 1496 1498 1485 1486 1497 1503 1506 1511 1515 1516 1517 1515 1517 1518 1517 1518 1519 1520 1521 1524 1523 1521 1521 1521 1521 1519 1518 1518 1518 1515 1513 1510 1507 1504 1502 1500 1498 1496 1494 1493 1490 1490 1488
1514 1506 1503 1509 1502 1505 1493 1481 1497 1500 1505 1507 1508 1510 1513 1516 1514 1516 1517 1516 1516 1515 1517 1517 1520 1522 1522 1522 1521 1519 1518 1516 1516 1515 1513 1512 1508 1506 1503 1500 1497 1496 1494 1492 1490 1488 1486 1483 1481
1507 1506 1513 1508 1533 1526 1499 1496 1508 1521 1527 1510 1508 1511 1514 1515 1516 1516 1516 1515 1515 1514 1514 1515 1517 1520 1522 1521 1519 1518 1516 1513 1513 1511 1508 1507 1505 1502 1499 1496 1493 1492 1488 1485 1484 1482 1479 1478 1475
1513 1510 1515 1517 1523 1535 1534 1513 1503 1505 1507 1510 1510 1513 1515 1517 1518 1518 1517 1516 1515 1514 1514 1515 1517 1518 1520 1520 1518 1515 1512 1510 1508 1505 1504 1502 1499 1497 1494 1492 1489 1487 1485 1483 1478 1475 1473 1471 1469
1512 1511 1516 1529 1528 1524 1539 1530 1504 1504 1507 1508 1510 1515 1516 1518 1520 1521 1521 1519 1517 1516 1515 1516 1516 1518 1519 1518 1515 1512 1507 1505 1503 1501 1500 1498 1496 1493 1491 1488 1484 1481 1478 1475 1472 1468 1466 1464 1462